Lexington, NE

12:59 AM CST on February 25, 2017 (GMT -0600)
Kelly

Weather History for KLXN - December, 2013

Change the Weather History Date:

Saturday, December 7, 2013

  Actual Average Record
Temperature  
Mean Temperature 4 °F -  
Max Temperature 11 °F 42 °F 56 °F (2015)
Min Temperature -3 °F 19 °F -3 °F (2013)
Degree Days  
Heating Degree Days 61    
Moisture  
Dew Point -5 °F    
Average Humidity 66    
Maximum Humidity 84    
Minimum Humidity 45    
Precipitation  
Precipitation 0.00 in - - ()
Sea Level Pressure  
Sea Level Pressure 30.41 in    
Wind  
Wind Speed 7 mph (SE)    
Max Wind Speed 15 mph    
Max Gust Speed 21 mph    
Visibility 9 miles    
Events Snow    
Averages and records for this station are not official NWS values.
T = Trace of Precipitation, MM = Missing Value Source: NWS Daily Summary

Daily Weather History Graph

Daily Weather History Graph

Search for Another Location

Airport or City:

Trip Planner

Search our weather history database for the weather conditions in past years. The results will help you decide how hot, cold, wet, or windy it might be!

Date:

Astronomy

Dec. 07, 2013 Rise Set
Actual Time 7:50 AM CST 5:11 PM CST
Civil Twilight 7:19 AM CST 5:42 PM CST
Nautical Twilight 6:45 AM CST 6:16 PM CST
Astronomical Twilight 6:11 AM CST 6:49 PM CST
Moon 11:34 AM CST (12/7) 10:56 PM CST (12/7)
Length of Visible Light 10h 22m
Length of Day
9h 21m
Waxing Crescent, 29% of the Moon is Illuminated
Dec 7
Waxing Crescent
Dec 9
First Quarter
Dec 17
Full
Dec 25
Last Quarter
Jan 1
New

Hourly Weather History & Observations

Time (CST) Temp. Windchill Dew Point Humidity Pressure Visibility Wind Dir Wind Speed Gust Speed Precip Events Conditions
12:15 AM -2.9 °F - -9.2 °F 74% 30.57 in 10.0 mi Calm Calm - N/A   Clear
12:35 AM -3.6 °F -12.0 °F -9.2 °F 77% 30.57 in 10.0 mi ENE 3.5 mph - N/A   Clear
12:55 AM -3.1 °F -11.4 °F -9.6 °F 74% 30.56 in 10.0 mi East 3.5 mph - N/A   Clear
1:15 AM -3.1 °F -11.4 °F -9.9 °F 73% 30.56 in 10.0 mi East 3.5 mph - N/A   Clear
1:35 AM -3.5 °F -15.7 °F -10.3 °F 73% 30.55 in 10.0 mi East 5.8 mph - N/A   Clear
1:55 AM -3.1 °F -11.4 °F -10.5 °F 71% 30.56 in 10.0 mi East 3.5 mph - N/A   Clear
2:15 AM -3.5 °F -13.9 °F -10.8 °F 71% 30.55 in 10.0 mi East 4.6 mph - N/A   Scattered Clouds
2:35 AM -3.1 °F - -10.1 °F 72% 30.55 in 10.0 mi Calm Calm - N/A   Scattered Clouds
2:55 AM -3.1 °F -11.4 °F -10.3 °F 71% 30.55 in 10.0 mi East 3.5 mph - N/A   Scattered Clouds
3:15 AM -3.3 °F -15.4 °F -10.5 °F 71% 30.54 in 10.0 mi East 5.8 mph - N/A   Scattered Clouds
3:35 AM -3.5 °F -13.9 °F -10.3 °F 73% 30.55 in 10.0 mi ESE 4.6 mph - N/A   Clear
3:55 AM -3.1 °F -11.4 °F -9.4 °F 74% 30.55 in 10.0 mi ESE 3.5 mph - N/A   Clear
4:15 AM -2.7 °F -11.0 °F -9.4 °F 73% 30.53 in 10.0 mi East 3.5 mph - N/A   Clear
4:35 AM -2.6 °F -12.9 °F -9.2 °F 73% 30.53 in 10.0 mi ESE 4.6 mph - N/A   Clear
4:55 AM -1.8 °F -12.0 °F -8.9 °F 72% 30.53 in 10.0 mi ESE 4.6 mph - N/A   Clear
5:15 AM -1.7 °F -13.5 °F -8.7 °F 72% 30.52 in 10.0 mi ESE 5.8 mph - N/A   Clear
5:35 AM -1.7 °F -11.8 °F -8.7 °F 72% 30.53 in 10.0 mi ESE 4.6 mph - N/A   Clear
5:55 AM -1.5 °F -13.3 °F -8.5 °F 72% 30.53 in 10.0 mi ESE 5.8 mph - N/A   Clear
6:15 AM -1.3 °F -14.5 °F -8.3 °F 72% 30.53 in 10.0 mi ESE 6.9 mph - N/A   Clear
6:35 AM -0.9 °F -16.4 °F -8.1 °F 72% 30.53 in 10.0 mi East 9.2 mph - N/A   Clear
6:55 AM -0.8 °F -13.9 °F -7.8 °F 72% 30.53 in 10.0 mi East 6.9 mph - N/A   Clear
7:15 AM -0.8 °F -10.8 °F -7.2 °F 74% 30.53 in 10.0 mi ESE 4.6 mph - N/A   Clear
7:35 AM -0.4 °F -10.4 °F -6.7 °F 75% 30.53 in 10.0 mi ESE 4.6 mph - N/A   Clear
7:55 AM 0.1 °F -12.8 °F -6.9 °F 72% 30.53 in 10.0 mi SE 6.9 mph - N/A   Clear
8:15 AM 0.5 °F -9.3 °F -6.7 °F 72% 30.53 in 10.0 mi SE 4.6 mph - N/A   Clear
8:35 AM 0.9 °F -11.9 °F -6.9 °F 70% 30.53 in 10.0 mi SE 6.9 mph - N/A   Clear
8:55 AM 1.0 °F -11.7 °F -6.5 °F 71% 30.53 in 10.0 mi SE 6.9 mph - N/A   Scattered Clouds
9:15 AM 1.9 °F -10.6 °F -5.8 °F 70% 30.53 in 10.0 mi SE 6.9 mph - N/A   Scattered Clouds
9:35 AM 2.5 °F -11.1 °F -5.8 °F 68% 30.53 in 10.0 mi SE 8.1 mph - N/A   Overcast
9:55 AM 3.7 °F -9.6 °F -5.3 °F 66% 30.53 in 10.0 mi SSE 8.1 mph - N/A   Scattered Clouds
10:15 AM 4.3 °F -10.9 °F -5.6 °F 64% 30.53 in 10.0 mi SSE 10.4 mph - N/A   Clear
10:35 AM 4.8 °F -10.2 °F -5.3 °F 63% 30.52 in 10.0 mi SSE 10.4 mph - N/A   Clear
10:55 AM 5.5 °F -11.6 °F -5.8 °F 60% 30.51 in 10.0 mi SSE 13.8 mph - N/A   Clear
11:15 AM 5.9 °F -10.5 °F -6.0 °F 58% 30.51 in 10.0 mi SSE 12.7 mph - N/A   Scattered Clouds
11:35 AM 6.3 °F -7.5 °F -6.2 °F 57% 30.50 in 10.0 mi SSE 9.2 mph - N/A   Overcast
11:55 AM 7.0 °F -7.5 °F -6.0 °F 55% 30.48 in 10.0 mi SSE 10.4 mph - N/A   Overcast
12:15 PM 7.3 °F -7.9 °F -6.3 °F 54% 30.46 in 10.0 mi SSE 11.5 mph - N/A   Overcast
12:35 PM 7.7 °F -6.6 °F -6.7 °F 52% 30.45 in 10.0 mi SSE 10.4 mph - N/A   Overcast
12:55 PM 8.8 °F -4.4 °F -6.2 °F 51% 30.43 in 10.0 mi SSE 9.2 mph - N/A   Overcast
1:15 PM 9.0 °F -5.9 °F -6.5 °F 50% 30.41 in 10.0 mi SSE 11.5 mph 16.1 mph N/A   Overcast
1:35 PM 9.0 °F -5.1 °F -4.9 °F 53% 30.40 in 7.0 mi SSE 10.4 mph - N/A   Overcast
1:55 PM 9.3 °F -3.8 °F -6.2 °F 50% 30.37 in 10.0 mi SSE 9.2 mph - N/A   Overcast
2:15 PM 10.0 °F -4.5 °F -6.3 °F 48% 30.34 in 10.0 mi SE 11.5 mph - N/A   Overcast
2:35 PM 10.0 °F -4.5 °F -6.5 °F 47% 30.34 in 10.0 mi SE 11.5 mph - N/A   Overcast
2:55 PM 10.0 °F -3.7 °F -7.2 °F 46% 30.32 in 10.0 mi SE 10.4 mph 17.3 mph N/A   Overcast
3:15 PM 10.0 °F -4.5 °F -7.2 °F 46% 30.31 in 10.0 mi SE 11.5 mph 17.3 mph N/A   Overcast
3:35 PM 10.2 °F -4.3 °F -6.7 °F 47% 30.30 in 10.0 mi SE 11.5 mph - N/A   Overcast
3:55 PM 10.4 °F -4.1 °F -6.3 °F 47% 30.30 in 10.0 mi SE 11.5 mph 16.1 mph N/A   Overcast
4:15 PM 11.1 °F -2.4 °F -6.5 °F 45% 30.29 in 10.0 mi SE 10.4 mph 16.1 mph N/A   Overcast
4:35 PM 11.1 °F -2.4 °F -6.2 °F 46% 30.28 in 10.0 mi SE 10.4 mph - N/A   Overcast
4:55 PM 11.3 °F -3.6 °F -6.0 °F 46% 30.29 in 10.0 mi SE 12.7 mph - N/A   Overcast
5:15 PM 11.3 °F -2.9 °F -4.2 °F 50% 30.29 in 10.0 mi SE 11.5 mph - N/A Snow Light Snow
5:35 PM 11.3 °F -3.6 °F -3.1 °F 52% 30.28 in 10.0 mi ESE 12.7 mph 19.6 mph N/A Snow Light Snow
5:55 PM 11.3 °F -4.3 °F -3.8 °F 51% 30.27 in 10.0 mi SE 13.8 mph - N/A   Overcast
6:15 PM 11.3 °F -2.9 °F -4.2 °F 50% 30.27 in 10.0 mi SE 11.5 mph - N/A   Overcast
6:35 PM 11.3 °F -4.3 °F -4.2 °F 50% 30.27 in 10.0 mi SE 13.8 mph 17.3 mph N/A   Overcast
6:55 PM 10.9 °F -4.7 °F -3.5 °F 52% 30.27 in 10.0 mi ESE 13.8 mph 18.4 mph N/A   Overcast
7:15 PM 11.1 °F -3.2 °F -2.9 °F 53% 30.26 in 10.0 mi ESE 11.5 mph - N/A   Overcast
7:35 PM 11.3 °F -4.3 °F 1.0 °F 63% 30.26 in 7.0 mi SE 13.8 mph - N/A   Overcast
7:55 PM 11.1 °F -5.1 °F 4.1 °F 73% 30.25 in 4.0 mi SE 15.0 mph 20.7 mph N/A Snow Light Snow
8:15 PM 10.8 °F -4.3 °F 5.7 °F 80% 30.25 in 2.5 mi SE 12.7 mph - N/A Snow Light Snow
8:35 PM 10.4 °F -4.8 °F 5.7 °F 81% 30.24 in 4.0 mi SE 12.7 mph - N/A Snow Light Snow
8:55 PM 10.4 °F -4.1 °F 5.9 °F 82% 30.23 in 4.0 mi ESE 11.5 mph 18.4 mph N/A Snow Light Snow
9:15 PM 10.4 °F -4.1 °F 6.3 °F 83% 30.23 in 3.0 mi ESE 11.5 mph - N/A Snow Light Snow
9:35 PM 10.4 °F -4.1 °F 6.3 °F 83% 30.22 in 5.0 mi SE 11.5 mph 16.1 mph N/A Snow Light Snow
9:55 PM 10.4 °F -5.4 °F 6.4 °F 84% 30.20 in 4.0 mi SE 13.8 mph - N/A Snow Light Snow
10:15 PM 10.4 °F -4.1 °F 6.1 °F 83% 30.20 in 5.0 mi SE 11.5 mph - N/A Snow Light Snow
10:35 PM 10.4 °F -5.4 °F 6.3 °F 83% 30.20 in 4.0 mi SE 13.8 mph 18.4 mph N/A Snow Light Snow
10:55 PM 10.4 °F -5.4 °F 6.4 °F 84% 30.18 in 4.0 mi SE 13.8 mph - N/A Snow Light Snow
11:15 PM 10.4 °F -4.1 °F 6.4 °F 84% 30.18 in 5.0 mi ESE 11.5 mph - N/A Snow Light Snow
11:35 PM 10.4 °F -4.1 °F 6.3 °F 83% 30.16 in 4.0 mi SE 11.5 mph 18.4 mph N/A Snow Light Snow
11:55 PM 10.4 °F -6.0 °F 6.3 °F 83% 30.15 in 4.0 mi SE 15.0 mph - N/A Snow Light Snow